Time,TemperatureF,DewpointF,PressureIn,WindDirection,WindDirectionDegrees,WindSpeedMPH,WindSpeedGustMPH,Humidity,HourlyPrecipIn,Conditions,Clouds,dailyrainin,SoftwareType,DateUTC
2013-01-19 00:01:00,69.8,60.0,30.15,North,360,4.6,4.6,71,0.00,RA,SCT,0.00,WeatherDisplay:10.37,2013-01-19 05:01:00,
2013-01-19 00:04:00,70.0,60.2,30.15,SE,135,4.6,4.6,71,0.00,RA,SCT,0.00,WeatherDisplay:10.37,2013-01-19 05:04:00,
2013-01-19 00:05:00,69.9,60.1,30.15,East,86,3.0,5.0,71,0.00,RA,SCT,0.00,WeatherDisplay:10.37,2013-01-19 05:05:00,
2013-01-19 00:10:00,70.0,60.6,30.15,West,270,4.3,4.3,72,0.00,CLR,SCT,0.00,WeatherDisplay:10.37,2013-01-19 05:10:00,
2013-01-19 00:16:00,70.0,60.6,30.15,NE,45,4.6,4.6,72,0.00,CLR,SCT,0.00,WeatherDisplay:10.37,2013-01-19 05:16:00,
2013-01-19 00:21:00,70.0,60.2,30.15,South,180,5.4,5.4,71,0.00,CLR,SCT,0.00,WeatherDisplay:10.37,2013-01-19 05:21:00,
2013-01-19 00:27:00,70.0,59.8,30.15,NNE,22,5.4,5.4,70,0.00,CLR,SCT,0.00,WeatherDisplay:10.37,2013-01-19 05:27:00,
2013-01-19 00:32:00,70.2,60.4,30.15,ESE,112,5.8,5.8,71,0.00,CLR,SCT,0.00,WeatherDisplay:10.37,2013-01-19 05:32:00,
2013-01-19 00:38:00,70.2,60.4,30.15,West,270,4.6,4.6,71,0.00,CLR,SCT,0.00,WeatherDisplay:10.37,2013-01-19 05:38:00,
2013-01-19 00:43:00,70.2,60.4,30.15,WNW,292,3.5,3.5,71,0.00,CLR,SCT,0.00,WeatherDisplay:10.37,2013-01-19 05:43:00,
2013-01-19 00:49:00,70.0,60.2,30.14,NE,45,4.6,4.6,71,0.00,CLR,SCT,0.00,WeatherDisplay:10.37,2013-01-19 05:49:00,
2013-01-19 00:54:00,70.0,60.2,30.14,ESE,112,3.5,3.7,71,0.00,CLR,SCT,0.00,WeatherDisplay:10.37,2013-01-19 05:54:00,
2013-01-19 01:00:00,70.0,60.2,30.14,East,87,3.0,7.0,71,0.00,CLR,SCT,0.00,WeatherDisplay:10.37,2013-01-19 06:00:00,
2013-01-19 01:05:00,70.0,60.2,30.14,ESE,112,3.0,7.0,71,0.00,CLR,SCT,0.00,WeatherDisplay:10.37,2013-01-19 06:05:00,
2013-01-19 01:10:00,70.0,60.2,30.14,East,86,3.0,6.0,71,0.00,CLR,SCT,0.00,WeatherDisplay:10.37,2013-01-19 06:10:00,
2013-01-19 01:15:00,70.0,60.2,30.14,ENE,75,3.0,6.0,71,0.00,CLR,SCT,0.00,WeatherDisplay:10.37,2013-01-19 06:15:00,
2013-01-19 01:20:00,70.0,60.2,30.14,NNE,22,3.8,3.8,71,0.00,CLR,SCT,0.00,WeatherDisplay:10.37,2013-01-19 06:20:00,
2013-01-19 01:25:00,70.0,59.8,30.14,South,180,4.6,4.6,70,0.00,CLR,SCT,0.00,WeatherDisplay:10.37,2013-01-19 06:25:00,
2013-01-19 01:31:00,70.0,60.2,30.14,East,90,4.8,4.8,71,0.00,CLR,SCT,0.00,WeatherDisplay:10.37,2013-01-19 06:31:00,
2013-01-19 01:36:00,70.0,60.2,30.14,East,90,4.6,4.7,71,0.00,CLR,SCT,0.00,WeatherDisplay:10.37,2013-01-19 06:36:00,
2013-01-19 01:41:00,70.0,60.6,30.13,NNE,22,4.3,4.3,72,0.00,CLR,SCT,0.00,WeatherDisplay:10.37,2013-01-19 06:41:00,
2013-01-19 01:46:00,70.0,60.6,30.13,ENE,68,2.3,2.3,72,0.00,CLR,SCT,0.00,WeatherDisplay:10.37,2013-01-19 06:46:00,
2013-01-19 01:51:00,70.0,60.9,30.12,SE,135,5.8,5.8,73,0.00,CLR,SCT,0.00,WeatherDisplay:10.37,2013-01-19 06:51:00,
2013-01-19 01:57:00,70.2,61.5,30.12,NNE,22,5.8,5.8,74,0.00,CLR,SCT,0.00,WeatherDisplay:10.37,2013-01-19 06:57:00,
2013-01-19 02:02:00,70.2,61.5,30.12,SSW,202,3.5,3.5,74,0.00,CLR,SCT,0.00,WeatherDisplay:10.37,2013-01-19 07:02:00,
2013-01-19 02:07:00,70.2,61.9,30.12,ESE,112,5.4,5.4,75,0.00,CLR,SCT,0.00,WeatherDisplay:10.37,2013-01-19 07:07:00,
2013-01-19 02:13:00,70.2,61.9,30.12,SSW,202,5.8,5.8,75,0.00,CLR,SCT,0.00,WeatherDisplay:10.37,2013-01-19 07:13:00,
2013-01-19 02:18:00,70.2,61.5,30.12,NE,45,3.5,3.5,74,0.00,CLR,SCT,0.00,WeatherDisplay:10.37,2013-01-19 07:18:00,
2013-01-19 02:23:00,70.2,61.5,30.12,South,180,2.3,0.0,74,0.00,CLR,SCT,0.00,WeatherDisplay:10.37,2013-01-19 07:23:00,
2013-01-19 02:29:00,70.2,61.5,30.11,NE,45,2.3,0.0,74,0.00,CLR,SCT,0.00,WeatherDisplay:10.37,2013-01-19 07:29:00,
2013-01-19 02:34:00,70.2,61.5,30.11,ESE,112,3.8,3.8,74,0.00,CLR,SCT,0.00,WeatherDisplay:10.37,2013-01-19 07:34:00,
2013-01-19 02:40:00,70.0,61.3,30.11,East,101,1.0,4.0,74,0.00,CLR,SCT,0.00,WeatherDisplay:10.37,2013-01-19 07:40:00,
2013-01-19 02:45:00,70.0,61.3,30.11,NNW,334,2.0,4.0,74,0.00,CLR,SCT,0.00,WeatherDisplay:10.37,2013-01-19 07:45:00,
2013-01-19 02:50:00,70.0,60.9,30.11,NE,51,2.0,5.0,73,0.00,CLR,SCT,0.00,WeatherDisplay:10.37,2013-01-19 07:50:00,
2013-01-19 02:55:00,70.0,60.9,30.11,ENE,78,3.0,6.0,73,0.00,CLR,SCT,0.00,WeatherDisplay:10.37,2013-01-19 07:55:00,
2013-01-19 03:00:00,70.0,60.9,30.11,SSE,155,2.0,3.0,73,0.00,CLR,SCT,0.00,WeatherDisplay:10.37,2013-01-19 08:00:00,
2013-01-19 03:05:00,70.0,61.3,30.11,East,98,1.0,3.0,74,0.00,CLR,SCT,0.00,WeatherDisplay:10.37,2013-01-19 08:05:00,
2013-01-19 03:10:00,70.0,61.3,30.11,East,95,1.0,4.0,74,0.00,CLR,SCT,0.00,WeatherDisplay:10.37,2013-01-19 08:10:00,
2013-01-19 03:15:00,70.0,60.9,30.11,NNE,22,3.3,3.3,73,0.00,CLR,SCT,0.00,WeatherDisplay:10.37,2013-01-19 08:15:00,
2013-01-19 03:20:00,70.0,60.9,30.11,WSW,248,4.8,4.8,73,0.00,CLR,SCT,0.00,WeatherDisplay:10.37,2013-01-19 08:20:00,
2013-01-19 03:26:00,70.0,60.6,30.11,WSW,248,3.5,3.5,72,0.00,CLR,SCT,0.00,WeatherDisplay:10.37,2013-01-19 08:26:00,
2013-01-19 03:31:00,70.2,60.7,30.11,SE,135,3.3,3.3,72,0.00,CLR,SCT,0.00,WeatherDisplay:10.37,2013-01-19 08:31:00,
2013-01-19 03:37:00,70.2,60.7,30.11,ENE,68,2.3,2.3,72,0.00,CLR,SCT,0.00,WeatherDisplay:10.37,2013-01-19 08:37:00,
2013-01-19 03:42:00,70.3,60.8,30.11,ESE,112,4.6,4.6,72,0.00,CLR,SCT,0.00,WeatherDisplay:10.37,2013-01-19 08:42:00,
2013-01-19 03:48:00,70.3,60.8,30.11,ESE,112,4.6,4.6,72,0.00,CLR,SCT,0.00,WeatherDisplay:10.37,2013-01-19 08:48:00,
2013-01-19 03:53:00,70.3,60.8,30.11,NW,315,2.3,2.3,72,0.00,CLR,SCT,0.00,WeatherDisplay:10.37,2013-01-19 08:53:00,
2013-01-19 03:59:00,70.3,60.8,30.11,NNE,22,5.8,5.8,72,0.00,CLR,SCT,0.00,WeatherDisplay:10.37,2013-01-19 08:59:00,
2013-01-19 04:04:00,70.3,60.8,30.11,ESE,112,2.3,2.3,72,0.00,CLR,SCT,0.00,WeatherDisplay:10.37,2013-01-19 09:04:00,
2013-01-19 04:10:00,70.3,60.8,30.11,East,96,1.0,3.0,72,0.00,CLR,SCT,0.00,WeatherDisplay:10.37,2013-01-19 09:10:00,
2013-01-19 04:15:00,70.3,60.8,30.10,East,90,2.3,2.3,72,0.00,CLR,SCT,0.00,WeatherDisplay:10.37,2013-01-19 09:15:00,
2013-01-19 04:20:00,70.3,60.8,30.10,SE,136,2.0,5.0,72,0.00,CLR,SCT,0.00,WeatherDisplay:10.37,2013-01-19 09:20:00,
2013-01-19 04:25:00,70.3,60.4,30.10,ENE,73,2.0,3.0,71,0.00,CLR,SCT,0.00,WeatherDisplay:10.37,2013-01-19 09:25:00,
2013-01-19 04:30:00,70.3,60.4,30.11,East,97,1.0,5.0,71,0.00,CLR,SCT,0.00,WeatherDisplay:10.37,2013-01-19 09:30:00,
2013-01-19 04:35:00,70.3,60.4,30.11,SSE,149,2.0,3.0,71,0.00,CLR,SCT,0.00,WeatherDisplay:10.37,2013-01-19 09:35:00,
2013-01-19 04:40:00,70.5,60.6,30.11,NE,55,2.0,5.0,71,0.00,CLR,SCT,0.00,WeatherDisplay:10.37,2013-01-19 09:40:00,
2013-01-19 04:45:00,70.5,60.6,30.11,NNE,30,1.0,5.0,71,0.00,CLR,SCT,0.00,WeatherDisplay:10.37,2013-01-19 09:45:00,
2013-01-19 04:50:00,70.7,60.8,30.11,NNE,20,2.0,5.0,71,0.00,CLR,SCT,0.00,WeatherDisplay:10.37,2013-01-19 09:50:00,
2013-01-19 04:55:00,70.7,60.8,30.11,ENE,71,2.0,5.0,71,0.00,CLR,SCT,0.00,WeatherDisplay:10.37,2013-01-19 09:55:00,
2013-01-19 05:00:00,70.7,60.8,30.11,East,91,2.0,4.0,71,0.00,CLR,SCT,0.00,WeatherDisplay:10.37,2013-01-19 10:00:00,
2013-01-19 05:05:00,70.7,60.4,30.11,NE,34,1.0,3.0,70,0.00,CLR,SCT,0.00,WeatherDisplay:10.37,2013-01-19 10:05:00,
2013-01-19 05:10:00,70.7,60.4,30.11,NNE,33,1.0,3.0,70,0.00,CLR,SCT,0.00,WeatherDisplay:10.37,2013-01-19 10:10:00,
2013-01-19 05:15:00,70.7,60.5,30.10,WNW,288,3.0,4.0,70,0.00,CLR,SCT,0.00,WeatherDisplay:10.37,2013-01-19 10:15:00,
2013-01-19 05:20:00,70.9,60.6,30.10,NNE,19,2.0,5.0,70,0.00,CLR,SCT,0.00,WeatherDisplay:10.37,2013-01-19 10:20:00,
2013-01-19 05:25:00,70.9,60.6,30.10,ENE,57,0.0,3.0,70,0.00,CLR,SCT,0.00,WeatherDisplay:10.37,2013-01-19 10:25:00,
2013-01-19 05:30:00,70.7,60.8,30.11,East,80,1.0,3.0,71,0.00,CLR,SCT,0.00,WeatherDisplay:10.37,2013-01-19 10:30:00,
2013-01-19 05:35:00,70.7,60.8,30.11,East,97,3.0,5.0,71,0.00,CLR,SCT,0.00,WeatherDisplay:10.37,2013-01-19 10:35:00,
2013-01-19 05:40:00,70.7,61.2,30.11,ESE,109,0.0,2.0,72,0.00,CLR,SCT,0.00,WeatherDisplay:10.37,2013-01-19 10:40:00,
2013-01-19 05:45:00,70.7,61.2,30.11,ENE,68,2.0,3.0,72,0.00,CLR,SCT,0.00,WeatherDisplay:10.37,2013-01-19 10:45:00,
2013-01-19 05:50:00,70.7,61.2,30.11,ENE,59,0.0,3.0,72,0.00,CLR,SCT,0.00,WeatherDisplay:10.37,2013-01-19 10:50:00,
2013-01-19 05:55:00,70.7,61.6,30.11,NE,44,3.0,5.0,73,0.00,CLR,SCT,0.00,WeatherDisplay:10.37,2013-01-19 10:55:00,
2013-01-19 06:00:00,70.7,61.6,30.11,NE,34,2.0,4.0,73,0.00,CLR,SCT,0.00,WeatherDisplay:10.37,2013-01-19 11:00:00,
2013-01-19 06:05:00,70.7,61.6,30.11,SSW,206,0.0,3.0,73,0.00,CLR,SCT,0.00,WeatherDisplay:10.37,2013-01-19 11:05:00,
2013-01-19 06:10:00,70.7,62.0,30.11,NNE,22,3.5,3.5,74,0.00,CLR,SCT,0.00,WeatherDisplay:10.37,2013-01-19 11:10:00,
2013-01-19 06:15:00,70.7,62.4,30.12,North,355,1.0,5.0,75,0.00,CLR,SCT,0.00,WeatherDisplay:10.37,2013-01-19 11:15:00,
2013-01-19 07:47:00,71.4,64.2,30.13,South,180,3.5,3.5,78,0.00,CLR,SCT,0.00,WeatherDisplay:10.37,2013-01-19 12:47:00,
2013-01-19 07:48:00,71.4,64.2,30.13,ENE,68,2.3,0.0,78,0.00,CLR,SCT,0.00,WeatherDisplay:10.37,2013-01-19 12:48:00,
2013-01-19 07:49:00,71.4,64.2,30.14,NE,45,4.3,4.3,78,0.00,CLR,SCT,0.00,WeatherDisplay:10.37,2013-01-19 12:49:00,
2013-01-19 07:50:00,71.4,64.2,30.14,SE,124,1.0,5.0,78,0.00,CLR,SCT,0.00,WeatherDisplay:10.37,2013-01-19 12:50:00,
2013-01-19 07:56:00,71.8,64.2,30.14,ESE,112,3.5,3.5,77,0.00,CLR,SCT,0.00,WeatherDisplay:10.37,2013-01-19 12:56:00,
2013-01-19 08:01:00,72.0,64.0,30.14,NE,45,4.6,4.6,76,0.00,CLR,SCT,0.00,WeatherDisplay:10.37,2013-01-19 13:01:00,
2013-01-19 08:07:00,72.0,64.0,30.14,NNE,22,3.5,3.5,76,0.00,CLR,SCT,0.00,WeatherDisplay:10.37,2013-01-19 13:07:00,
2013-01-19 08:12:00,72.0,64.4,30.14,SSE,158,5.8,5.8,77,0.00,CLR,SCT,0.00,WeatherDisplay:10.37,2013-01-19 13:12:00,
2013-01-19 08:18:00,72.1,64.5,30.14,SE,135,3.5,3.5,77,0.00,CLR,SCT,0.00,WeatherDisplay:10.37,2013-01-19 13:18:00,
2013-01-19 08:23:00,72.3,64.7,30.14,ENE,68,2.7,2.7,77,0.00,CLR,SCT,0.00,WeatherDisplay:10.37,2013-01-19 13:23:00,
2013-01-19 08:29:00,72.5,64.9,30.15,NNE,22,0.0,0.0,77,0.00,CLR,SCT,0.00,WeatherDisplay:10.37,2013-01-19 13:29:00,
2013-01-19 08:34:00,72.5,64.9,30.15,NE,45,1.2,1.2,77,0.00,CLR,SCT,0.00,WeatherDisplay:10.37,2013-01-19 13:34:00,
2013-01-19 08:40:00,72.5,64.9,30.15,NNE,27,1.0,4.0,77,0.00,CLR,SCT,0.00,WeatherDisplay:10.37,2013-01-19 13:40:00,
2013-01-19 08:45:00,72.7,65.1,30.15,NE,40,3.0,5.0,77,0.00,CLR,SCT,0.00,WeatherDisplay:10.37,2013-01-19 13:45:00,
2013-01-19 08:50:00,72.7,64.7,30.15,NE,49,3.0,5.0,76,0.00,CLR,SCT,0.00,WeatherDisplay:10.37,2013-01-19 13:50:00,
2013-01-19 08:55:00,72.7,64.3,30.16,NNE,22,4.6,4.6,75,0.00,CLR,SCT,0.00,WeatherDisplay:10.37,2013-01-19 13:55:00,
2013-01-19 09:00:00,72.7,64.3,30.16,NNE,22,3.5,3.5,75,0.00,CLR,SCT,0.00,WeatherDisplay:10.37,2013-01-19 14:00:00,
2013-01-19 09:06:00,72.9,64.5,30.16,SSE,158,3.5,3.5,75,0.00,CLR,SCT,0.00,WeatherDisplay:10.37,2013-01-19 14:06:00,
2013-01-19 09:11:00,72.9,64.5,30.16,East,90,2.3,2.3,75,0.00,CLR,SCT,0.00,WeatherDisplay:10.37,2013-01-19 14:11:00,
2013-01-19 09:17:00,73.0,64.6,30.17,South,180,3.5,3.5,75,0.00,CLR,SCT,0.00,WeatherDisplay:10.37,2013-01-19 14:17:00,
2013-01-19 09:22:00,72.7,65.4,30.17,ENE,68,5.8,5.8,78,0.00,CLR,SCT,0.00,WeatherDisplay:10.37,2013-01-19 14:22:00,
2013-01-19 09:28:00,72.0,65.5,30.17,East,90,0.0,0.0,80,0.00,CLR,SCT,0.00,WeatherDisplay:10.37,2013-01-19 14:28:00,
2013-01-19 09:33:00,71.2,64.7,30.17,North,360,2.3,2.3,80,0.00,CLR,SCT,0.00,WeatherDisplay:10.37,2013-01-19 14:33:00,
2013-01-19 09:39:00,70.5,66.1,30.18,NNE,22,3.8,3.8,86,0.03,RA,SCT,0.03,WeatherDisplay:10.37,2013-01-19 14:39:00,
2013-01-19 09:44:00,70.2,66.5,30.18,North,360,2.3,2.3,88,0.05,RA,SCT,0.05,WeatherDisplay:10.37,2013-01-19 14:44:00,
2013-01-19 09:50:00,70.0,67.0,30.19,NNE,23,3.0,4.0,90,0.00,RA,SCT,0.06,WeatherDisplay:10.37,2013-01-19 14:50:00,
2013-01-19 09:55:00,69.3,66.6,30.19,NE,50,3.0,6.0,91,0.00,RA,SCT,0.06,WeatherDisplay:10.37,2013-01-19 14:55:00,
2013-01-19 10:00:00,68.7,66.0,30.19,NNE,31,2.0,4.0,91,0.00,CLR,SCT,0.06,WeatherDisplay:10.37,2013-01-19 15:00:00,
2013-01-19 10:05:00,68.4,65.7,30.19,North,352,0.0,4.0,91,0.00,RA,SCT,0.07,WeatherDisplay:10.37,2013-01-19 15:05:00,
2013-01-19 10:10:00,68.7,66.0,30.19,North,9,0.0,2.0,91,0.00,RA,SCT,0.08,WeatherDisplay:10.37,2013-01-19 15:10:00,
2013-01-19 10:15:00,68.6,66.2,30.19,NE,39,0.0,3.0,92,0.00,RA,SCT,0.08,WeatherDisplay:10.37,2013-01-19 15:15:00,
2013-01-19 10:20:00,68.4,66.3,30.19,North,357,0.0,3.0,93,0.00,RA,SCT,0.09,WeatherDisplay:10.37,2013-01-19 15:20:00,
2013-01-19 10:25:00,68.4,66.3,30.19,North,355,1.0,2.0,93,0.01,RA,SCT,0.10,WeatherDisplay:10.37,2013-01-19 15:25:00,
2013-01-19 10:30:00,68.4,66.6,30.19,NE,36,2.0,5.0,94,0.00,RA,SCT,0.10,WeatherDisplay:10.37,2013-01-19 15:30:00,
2013-01-19 10:35:00,68.4,66.6,30.19,NNE,29,2.0,4.0,94,0.00,,SCT,0.10,WeatherDisplay:10.37,2013-01-19 15:35:00,
2013-01-19 10:40:00,68.4,66.6,30.19,ESE,112,3.5,3.5,94,0.09,RA,SCT,0.12,WeatherDisplay:10.37,2013-01-19 15:40:00,
2013-01-19 10:45:00,68.4,66.6,30.19,North,360,0.0,0.0,94,0.08,RA,SCT,0.13,WeatherDisplay:10.37,2013-01-19 15:45:00,
2013-01-19 10:51:00,68.4,66.6,30.18,NE,45,3.8,3.8,94,0.08,RA,SCT,0.14,WeatherDisplay:10.37,2013-01-19 15:51:00,
2013-01-19 10:56:00,68.5,66.7,30.18,NNE,22,3.5,3.5,94,0.08,RA,SCT,0.14,WeatherDisplay:10.37,2013-01-19 15:56:00,
2013-01-19 11:02:00,68.7,66.9,30.18,NE,45,4.3,4.3,94,0.07,CLR,SCT,0.14,WeatherDisplay:10.37,2013-01-19 16:02:00,
2013-01-19 11:07:00,68.4,66.6,30.18,North,360,4.6,4.6,94,0.08,RA,SCT,0.15,WeatherDisplay:10.37,2013-01-19 16:07:00,
2013-01-19 11:13:00,68.2,66.4,30.18,East,90,2.3,2.3,94,0.08,RA,SCT,0.16,WeatherDisplay:10.37,2013-01-19 16:13:00,
2013-01-19 11:18:00,68.7,66.9,30.18,ESE,112,0.0,0.0,94,0.08,RA,SCT,0.17,WeatherDisplay:10.37,2013-01-19 16:18:00,
2013-01-19 11:24:00,68.4,66.6,30.18,ESE,112,5.8,5.8,94,0.08,,SCT,0.17,WeatherDisplay:10.37,2013-01-19 16:24:00,
2013-01-19 11:29:00,68.7,66.9,30.17,South,180,1.7,1.7,94,0.08,RA,SCT,0.18,WeatherDisplay:10.37,2013-01-19 16:29:00,
2013-01-19 11:35:00,69.3,67.1,30.17,SE,145,0.0,3.0,93,0.00,RA,SCT,0.18,WeatherDisplay:10.37,2013-01-19 16:35:00,
2013-01-19 11:40:00,69.5,67.4,30.17,SE,140,0.0,0.0,93,0.00,CLR,SCT,0.18,WeatherDisplay:10.37,2013-01-19 16:40:00,
2013-01-19 11:45:00,70.0,67.5,30.17,ESE,119,0.0,0.0,92,0.00,CLR,SCT,0.18,WeatherDisplay:10.37,2013-01-19 16:45:00,
2013-01-19 11:50:00,70.3,67.9,30.17,East,80,0.0,2.0,92,0.00,CLR,SCT,0.18,WeatherDisplay:10.37,2013-01-19 16:50:00,
2013-01-19 11:55:00,70.6,68.2,30.17,East,100,0.0,0.0,92,0.00,CLR,SCT,0.18,WeatherDisplay:10.37,2013-01-19 16:55:00,
2013-01-19 12:00:00,69.9,67.1,30.17,ENE,63,0.0,2.0,91,0.00,CLR,SCT,0.18,WeatherDisplay:10.37,2013-01-19 17:00:00,
2013-01-19 12:05:00,70.3,67.5,30.15,NNE,22,0.0,2.0,91,0.00,CLR,SCT,0.18,WeatherDisplay:10.37,2013-01-19 17:05:00,
2013-01-19 12:10:00,70.1,67.4,30.15,WNW,297,0.0,0.0,91,0.00,CLR,SCT,0.18,WeatherDisplay:10.37,2013-01-19 17:10:00,
2013-01-19 12:15:00,70.3,67.9,30.15,WSW,243,0.0,2.0,92,0.00,CLR,SCT,0.18,WeatherDisplay:10.37,2013-01-19 17:15:00,
2013-01-19 12:20:00,70.7,68.3,30.15,WNW,282,1.0,3.0,92,0.00,CLR,SCT,0.18,WeatherDisplay:10.37,2013-01-19 17:20:00,
2013-01-19 12:25:00,70.9,68.5,30.15,SW,225,2.2,2.2,92,0.01,CLR,SCT,0.18,WeatherDisplay:10.37,2013-01-19 17:25:00,
2013-01-19 12:30:00,70.7,67.9,30.15,SSW,202,1.7,1.7,91,0.01,RA,SCT,0.19,WeatherDisplay:10.37,2013-01-19 17:30:00,
2013-01-19 12:35:00,70.9,68.5,30.15,NNW,338,0.0,0.0,92,0.01,RA,SCT,0.19,WeatherDisplay:10.37,2013-01-19 17:35:00,
2013-01-19 12:41:00,70.9,68.5,30.14,NNE,22,0.0,0.0,92,0.02,RA,SCT,0.20,WeatherDisplay:10.37,2013-01-19 17:41:00,
2013-01-19 12:47:00,70.5,68.1,30.14,South,180,0.0,0.0,92,0.06,RA,SCT,0.24,WeatherDisplay:10.37,2013-01-19 17:47:00,
2013-01-19 12:52:00,70.0,67.6,30.13,WSW,248,0.0,0.0,92,0.07,RA,SCT,0.25,WeatherDisplay:10.37,2013-01-19 17:52:00,
2013-01-19 12:57:00,70.0,67.9,30.13,North,360,0.0,0.0,93,0.09,RA,SCT,0.28,WeatherDisplay:10.37,2013-01-19 17:57:00,
2013-01-19 13:03:00,69.6,67.8,30.12,NNE,22,0.0,0.0,94,0.17,RA,SCT,0.35,WeatherDisplay:10.37,2013-01-19 18:03:00,
2013-01-19 13:09:00,69.8,68.0,30.12,SW,225,0.0,0.0,94,0.20,RA,SCT,0.38,WeatherDisplay:10.37,2013-01-19 18:09:00,
2013-01-19 13:14:00,69.4,67.9,30.12,West,270,0.0,0.0,95,0.20,RA,SCT,0.38,WeatherDisplay:10.37,2013-01-19 18:14:00,
2013-01-19 13:19:00,69.8,68.0,30.12,NNE,22,0.0,0.0,94,0.20,CLR,SCT,0.38,WeatherDisplay:10.37,2013-01-19 18:19:00,
2013-01-19 13:24:00,69.8,68.0,30.12,NNW,338,0.0,0.0,94,0.20,CLR,SCT,0.38,WeatherDisplay:10.37,2013-01-19 18:24:00,
2013-01-19 13:30:00,70.0,68.2,30.11,WNW,294,0.0,0.0,94,0.00,CLR,SCT,0.38,WeatherDisplay:10.37,2013-01-19 18:30:00,
2013-01-19 13:35:00,70.6,68.8,30.11,WSW,247,0.0,0.0,94,0.00,CLR,SCT,0.38,WeatherDisplay:10.37,2013-01-19 18:35:00,
2013-01-19 13:40:00,70.7,68.6,30.11,WSW,248,0.0,0.0,93,0.19,CLR,SCT,0.38,WeatherDisplay:10.37,2013-01-19 18:40:00,
2013-01-19 13:45:00,71.1,69.3,30.11,South,180,0.0,0.0,94,0.16,CLR,SCT,0.38,WeatherDisplay:10.37,2013-01-19 18:45:00,
2013-01-19 13:51:00,71.2,69.1,30.10,North,360,0.0,0.0,93,0.14,CLR,SCT,0.38,WeatherDisplay:10.37,2013-01-19 18:51:00,
2013-01-19 13:57:00,71.1,68.7,30.10,ESE,112,0.0,0.0,92,0.11,CLR,SCT,0.38,WeatherDisplay:10.37,2013-01-19 18:57:00,
2013-01-19 14:02:00,71.4,69.0,30.09,NW,315,0.0,0.0,92,0.03,CLR,SCT,0.38,WeatherDisplay:10.37,2013-01-19 19:02:00,
2013-01-19 14:07:00,71.8,69.0,30.09,West,270,0.0,0.0,91,0.00,CLR,SCT,0.38,WeatherDisplay:10.37,2013-01-19 19:07:00,
2013-01-19 14:13:00,71.8,68.4,30.09,South,180,0.0,0.0,89,0.00,CLR,SCT,0.38,WeatherDisplay:10.37,2013-01-19 19:13:00,
2013-01-19 14:18:00,72.3,69.2,30.09,ESE,112,0.0,0.0,90,0.00,CLR,SCT,0.38,WeatherDisplay:10.37,2013-01-19 19:18:00,
2013-01-19 14:25:00,72.7,69.9,30.09,West,274,0.0,0.0,91,0.00,CLR,SCT,0.38,WeatherDisplay:10.37,2013-01-19 19:25:00,
2013-01-19 14:30:00,72.9,70.1,30.09,WNW,303,0.0,0.0,91,0.00,CLR,SCT,0.38,WeatherDisplay:10.37,2013-01-19 19:30:00,
2013-01-19 14:35:00,72.9,70.1,30.09,SE,135,0.0,0.0,91,0.00,CLR,SCT,0.38,WeatherDisplay:10.37,2013-01-19 19:35:00,
2013-01-19 14:40:00,72.5,69.7,30.09,NNW,338,0.0,0.0,91,0.00,CLR,SCT,0.38,WeatherDisplay:10.37,2013-01-19 19:40:00,
2013-01-19 14:46:00,71.4,68.6,30.09,SSW,202,5.8,5.8,91,0.02,RA,SCT,0.40,WeatherDisplay:10.37,2013-01-19 19:46:00,
2013-01-19 14:51:00,70.3,68.2,30.09,NE,45,0.0,0.0,93,0.07,RA,SCT,0.45,WeatherDisplay:10.37,2013-01-19 19:51:00,
2013-01-19 14:57:00,70.3,68.2,30.09,NNE,22,2.3,2.3,93,0.09,RA,SCT,0.47,WeatherDisplay:10.37,2013-01-19 19:57:00,
2013-01-19 15:02:00,70.0,68.2,30.09,SE,135,0.0,0.0,94,0.10,RA,SCT,0.48,WeatherDisplay:10.37,2013-01-19 20:02:00,
2013-01-19 15:07:00,70.0,68.2,30.09,SW,225,0.0,0.0,94,0.10,RA,SCT,0.48,WeatherDisplay:10.37,2013-01-19 20:07:00,
2013-01-19 15:13:00,70.0,68.2,30.09,NNE,22,0.0,0.0,94,0.11,RA,SCT,0.49,WeatherDisplay:10.37,2013-01-19 20:13:00,
2013-01-19 15:18:00,69.8,68.3,30.09,NW,315,2.2,2.2,95,0.11,RA,SCT,0.49,WeatherDisplay:10.37,2013-01-19 20:18:00,
2013-01-19 15:24:00,69.4,67.6,30.09,East,90,3.5,3.5,94,0.12,RA,SCT,0.50,WeatherDisplay:10.37,2013-01-19 20:24:00,
2013-01-19 15:29:00,68.9,66.8,30.09,ESE,112,4.6,4.6,93,0.12,,SCT,0.50,WeatherDisplay:10.37,2013-01-19 20:29:00,
2013-01-19 15:34:00,69.1,67.0,30.09,SSW,202,3.5,3.5,93,0.12,CLR,SCT,0.50,WeatherDisplay:10.37,2013-01-19 20:34:00,
2013-01-19 15:40:00,68.7,66.3,30.09,NW,315,3.5,3.5,92,0.12,CLR,SCT,0.50,WeatherDisplay:10.37,2013-01-19 20:40:00,
2013-01-19 15:45:00,68.5,66.1,30.09,East,90,2.7,2.7,92,0.12,CLR,SCT,0.50,WeatherDisplay:10.37,2013-01-19 20:45:00,
2013-01-19 15:50:00,68.7,66.3,30.08,NNW,327,1.0,4.0,92,0.00,CLR,SCT,0.50,WeatherDisplay:10.37,2013-01-19 20:50:00,
2013-01-19 15:55:00,68.8,66.7,30.08,NNW,343,1.0,4.0,93,0.00,CLR,SCT,0.50,WeatherDisplay:10.37,2013-01-19 20:55:00,
2013-01-19 16:00:00,68.9,66.8,30.08,NNE,16,1.0,3.0,93,0.00,CLR,SCT,0.50,WeatherDisplay:10.37,2013-01-19 21:00:00,
2013-01-19 16:05:00,69.3,67.2,30.08,East,88,1.0,3.0,93,0.00,CLR,SCT,0.50,WeatherDisplay:10.37,2013-01-19 21:05:00,
2013-01-19 16:10:00,69.3,67.2,30.08,East,100,2.0,3.0,93,0.00,CLR,SCT,0.50,WeatherDisplay:10.37,2013-01-19 21:10:00,
2013-01-19 16:15:00,69.6,67.5,30.08,SSE,158,0.0,0.0,93,0.01,CLR,SCT,0.50,WeatherDisplay:10.37,2013-01-19 21:15:00,
2013-01-19 16:20:00,69.6,67.5,30.08,SSW,202,0.0,0.0,93,0.00,CLR,SCT,0.50,WeatherDisplay:10.37,2013-01-19 21:20:00,
2013-01-19 16:28:00,69.6,67.5,30.08,NNE,22,0.0,0.0,93,0.00,CLR,SCT,0.50,WeatherDisplay:10.37,2013-01-19 21:28:00,
2013-01-19 16:34:00,69.6,67.5,30.08,NNE,22,0.0,0.0,93,0.00,CLR,SCT,0.50,WeatherDisplay:10.37,2013-01-19 21:34:00,
2013-01-19 16:39:00,69.6,67.5,30.08,NNE,22,0.0,0.0,93,0.00,CLR,SCT,0.50,WeatherDisplay:10.37,2013-01-19 21:39:00,
2013-01-19 16:44:00,69.6,67.5,30.08,NE,45,0.0,0.0,93,0.00,CLR,SCT,0.50,WeatherDisplay:10.37,2013-01-19 21:44:00,
2013-01-19 16:50:00,69.4,67.3,30.08,NNE,32,0.0,0.0,93,0.00,CLR,SCT,0.50,WeatherDisplay:10.37,2013-01-19 21:50:00,
2013-01-19 16:55:00,69.4,67.6,30.08,NE,34,0.0,0.0,94,0.00,CLR,SCT,0.50,WeatherDisplay:10.37,2013-01-19 21:55:00,
2013-01-19 17:00:00,69.3,67.5,30.08,SSE,158,0.0,0.0,94,0.00,CLR,SCT,0.50,WeatherDisplay:10.37,2013-01-19 22:00:00,
2013-01-19 17:05:00,69.3,67.5,30.08,SSE,158,0.0,0.0,94,0.00,CLR,SCT,0.50,WeatherDisplay:10.37,2013-01-19 22:05:00,
2013-01-19 17:11:00,69.3,67.5,30.08,SSE,158,0.0,0.0,94,0.00,CLR,SCT,0.50,WeatherDisplay:10.37,2013-01-19 22:11:00,
2013-01-19 17:16:00,69.3,67.5,30.08,SSE,158,0.0,0.0,94,0.00,CLR,SCT,0.50,WeatherDisplay:10.37,2013-01-19 22:16:00,
2013-01-19 17:22:00,69.1,67.3,30.08,NNW,338,0.0,0.0,94,0.00,CLR,SCT,0.50,WeatherDisplay:10.37,2013-01-19 22:22:00,
2013-01-19 17:28:00,69.1,67.3,30.08,NE,45,0.0,0.0,94,0.00,CLR,SCT,0.50,WeatherDisplay:10.37,2013-01-19 22:28:00,
2013-01-19 17:33:00,68.9,67.1,30.08,West,270,0.0,0.0,94,0.00,CLR,SCT,0.50,WeatherDisplay:10.37,2013-01-19 22:33:00,
2013-01-19 17:39:00,68.9,67.1,30.08,ENE,68,0.0,0.0,94,0.00,CLR,SCT,0.50,WeatherDisplay:10.37,2013-01-19 22:39:00,
2013-01-19 17:44:00,68.7,67.2,30.08,WNW,292,0.0,0.0,95,0.00,CLR,SCT,0.50,WeatherDisplay:10.37,2013-01-19 22:44:00,
2013-01-19 17:49:00,68.7,67.2,30.09,South,180,0.0,0.0,95,0.03,RA,SCT,0.54,WeatherDisplay:10.37,2013-01-19 22:49:00,
2013-01-19 17:55:00,68.7,67.2,30.09,South,186,0.0,0.0,95,0.01,RA,SCT,0.60,WeatherDisplay:10.37,2013-01-19 22:55:00,
2013-01-19 18:01:00,68.4,67.2,30.09,South,180,0.0,0.0,96,0.13,RA,SCT,0.64,WeatherDisplay:10.37,2013-01-19 23:01:00,
2013-01-19 18:07:00,68.4,67.2,30.09,South,180,0.0,0.0,96,0.14,RA,SCT,0.64,WeatherDisplay:10.37,2013-01-19 23:07:00,
2013-01-19 18:12:00,68.4,67.2,30.09,South,180,0.0,0.0,96,0.16,RA,SCT,0.66,WeatherDisplay:10.37,2013-01-19 23:12:00,
2013-01-19 18:17:00,68.4,67.5,30.09,WSW,248,0.0,0.0,97,0.21,RA,SCT,0.72,WeatherDisplay:10.37,2013-01-19 23:17:00,
2013-01-19 18:23:00,68.2,67.3,30.09,South,180,0.0,0.0,97,0.23,RA,SCT,0.73,WeatherDisplay:10.37,2013-01-19 23:23:00,
2013-01-19 18:29:00,68.0,67.1,30.09,WNW,292,0.0,0.0,97,0.23,RA,SCT,0.73,WeatherDisplay:10.37,2013-01-19 23:29:00,
2013-01-19 18:34:00,68.0,67.1,30.09,SSW,202,0.0,0.0,97,0.23,CLR,SCT,0.73,WeatherDisplay:10.37,2013-01-19 23:34:00,
2013-01-19 18:40:00,68.0,67.1,30.10,NE,52,0.0,0.0,97,0.00,CLR,SCT,0.73,WeatherDisplay:10.37,2013-01-19 23:40:00,
2013-01-19 18:45:00,68.0,67.4,30.10,ENE,63,0.0,0.0,98,0.00,CLR,SCT,0.73,WeatherDisplay:10.37,2013-01-19 23:45:00,
2013-01-19 18:50:00,68.0,67.4,30.10,NNW,338,0.0,0.0,98,0.19,CLR,SCT,0.73,WeatherDisplay:10.37,2013-01-19 23:50:00,
2013-01-19 18:55:00,68.0,67.4,30.10,NNW,338,0.0,0.0,98,0.13,CLR,SCT,0.73,WeatherDisplay:10.37,2013-01-19 23:55:00,
2013-01-19 19:00:00,68.0,67.4,30.10,SW,225,0.0,0.0,98,0.11,CLR,SCT,0.73,WeatherDisplay:10.37,2013-01-20 00:00:00,
2013-01-19 19:06:00,67.8,67.2,30.10,NNW,338,0.0,0.0,98,0.09,CLR,SCT,0.73,WeatherDisplay:10.37,2013-01-20 00:06:00,
2013-01-19 19:13:00,67.8,67.2,30.10,NNW,338,0.0,0.0,98,0.07,CLR,SCT,0.73,WeatherDisplay:10.37,2013-01-20 00:13:00,
2013-01-19 19:18:00,67.8,67.2,30.10,SW,225,0.0,0.0,98,0.01,CLR,SCT,0.73,WeatherDisplay:10.37,2013-01-20 00:18:00,
2013-01-19 19:24:00,67.6,67.0,30.10,SW,225,0.0,0.0,98,0.00,CLR,SCT,0.73,WeatherDisplay:10.37,2013-01-20 00:24:00,
2013-01-19 19:29:00,67.6,67.0,30.10,WSW,248,0.0,0.0,98,0.00,CLR,SCT,0.73,WeatherDisplay:10.37,2013-01-20 00:29:00,
2013-01-19 19:35:00,67.5,66.9,30.10,West,272,0.0,0.0,98,0.00,CLR,SCT,0.73,WeatherDisplay:10.37,2013-01-20 00:35:00,
2013-01-19 19:40:00,67.5,66.9,30.10,NNW,331,0.0,0.0,98,0.00,CLR,SCT,0.73,WeatherDisplay:10.37,2013-01-20 00:40:00,
2013-01-19 19:45:00,67.5,66.9,30.10,West,270,0.0,0.0,98,0.00,CLR,SCT,0.73,WeatherDisplay:10.37,2013-01-20 00:45:00,
2013-01-19 19:50:00,67.5,66.9,30.11,WSW,248,0.0,0.0,98,0.00,CLR,SCT,0.73,WeatherDisplay:10.37,2013-01-20 00:50:00,
2013-01-19 19:58:00,67.3,66.7,30.11,WSW,248,0.0,0.0,98,0.00,CLR,SCT,0.73,WeatherDisplay:10.37,2013-01-20 00:58:00,
2013-01-19 20:04:00,67.3,66.7,30.11,NNW,338,0.0,0.0,98,0.00,CLR,SCT,0.73,WeatherDisplay:10.37,2013-01-20 01:04:00,
2013-01-19 20:09:00,67.3,66.7,30.11,WNW,292,0.0,0.0,98,0.00,CLR,SCT,0.73,WeatherDisplay:10.37,2013-01-20 01:09:00,
2013-01-19 20:15:00,67.3,66.7,30.10,NW,319,1.0,3.0,98,0.00,CLR,SCT,0.73,WeatherDisplay:10.37,2013-01-20 01:15:00,
2013-01-19 20:20:00,67.3,67.0,30.10,West,263,0.0,3.0,99,0.00,CLR,SCT,0.73,WeatherDisplay:10.37,2013-01-20 01:20:00,
2013-01-19 20:25:00,67.3,67.0,30.10,WSW,248,0.0,0.0,99,0.00,CLR,SCT,0.73,WeatherDisplay:10.37,2013-01-20 01:25:00,
2013-01-19 20:31:00,67.5,67.2,30.10,ENE,68,0.0,0.0,99,0.00,CLR,SCT,0.73,WeatherDisplay:10.37,2013-01-20 01:31:00,
2013-01-19 20:37:00,67.3,67.0,30.10,South,180,2.3,2.3,99,0.00,CLR,SCT,0.73,WeatherDisplay:10.37,2013-01-20 01:37:00,
2013-01-19 20:42:00,67.3,67.0,30.10,North,360,2.7,2.7,99,0.00,CLR,SCT,0.73,WeatherDisplay:10.37,2013-01-20 01:42:00,
2013-01-19 20:48:00,67.1,66.8,30.10,NW,315,2.3,2.4,99,0.00,CLR,SCT,0.73,WeatherDisplay:10.37,2013-01-20 01:48:00,
2013-01-19 20:53:00,67.1,66.8,30.11,NE,45,0.0,0.0,99,0.00,CLR,SCT,0.73,WeatherDisplay:10.37,2013-01-20 01:53:00,
2013-01-19 21:00:00,67.1,66.8,30.11,NNW,345,0.0,0.0,99,0.00,CLR,SCT,0.73,WeatherDisplay:10.37,2013-01-20 02:00:00,
2013-01-19 21:05:00,66.9,66.6,30.11,North,357,0.0,2.0,99,0.00,CLR,SCT,0.73,WeatherDisplay:10.37,2013-01-20 02:05:00,
2013-01-19 21:10:00,66.9,66.6,30.11,North,0,0.0,2.0,99,0.00,CLR,SCT,0.73,WeatherDisplay:10.37,2013-01-20 02:10:00,
2013-01-19 21:15:00,66.9,66.6,30.11,North,1,0.0,2.0,99,0.00,CLR,SCT,0.73,WeatherDisplay:10.37,2013-01-20 02:15:00,
2013-01-19 21:20:00,66.9,66.6,30.11,West,274,1.0,2.0,99,0.00,CLR,SCT,0.73,WeatherDisplay:10.37,2013-01-20 02:20:00,
2013-01-19 21:25:00,66.7,66.4,30.10,NW,315,0.0,3.0,99,0.00,CLR,SCT,0.73,WeatherDisplay:10.37,2013-01-20 02:25:00,
2013-01-19 21:30:00,66.7,66.4,30.10,NNW,338,0.0,0.0,99,0.00,CLR,SCT,0.73,WeatherDisplay:10.37,2013-01-20 02:30:00,
2013-01-19 21:38:00,66.7,66.4,30.10,SE,135,1.1,0.0,99,0.00,CLR,SCT,0.73,WeatherDisplay:10.37,2013-01-20 02:38:00,
2013-01-19 21:43:00,66.7,66.4,30.10,WNW,292,2.7,2.7,99,0.00,CLR,SCT,0.73,WeatherDisplay:10.37,2013-01-20 02:43:00,
2013-01-19 21:49:00,66.7,66.4,30.10,WNW,292,0.0,0.0,99,0.00,CLR,SCT,0.73,WeatherDisplay:10.37,2013-01-20 02:49:00,
2013-01-19 21:54:00,66.7,66.4,30.10,SSW,202,2.3,2.3,99,0.00,CLR,SCT,0.73,WeatherDisplay:10.37,2013-01-20 02:54:00,
2013-01-19 22:00:00,66.7,66.4,30.10,SW,233,0.0,2.0,99,0.00,CLR,SCT,0.73,WeatherDisplay:10.37,2013-01-20 03:00:00,
2013-01-19 22:05:00,66.7,66.4,30.10,WNW,286,0.0,0.0,99,0.00,CLR,SCT,0.73,WeatherDisplay:10.37,2013-01-20 03:05:00,
2013-01-19 22:10:00,66.6,66.3,30.10,West,268,0.0,2.0,99,0.00,CLR,SCT,0.73,WeatherDisplay:10.37,2013-01-20 03:10:00,
2013-01-19 22:15:00,66.4,66.1,30.10,WSW,245,0.0,2.0,99,0.00,CLR,SCT,0.73,WeatherDisplay:10.37,2013-01-20 03:15:00,
2013-01-19 22:20:00,66.4,66.1,30.10,West,267,0.0,0.0,99,0.00,CLR,SCT,0.73,WeatherDisplay:10.37,2013-01-20 03:20:00,
2013-01-19 22:25:00,66.2,65.9,30.10,WNW,282,0.0,0.0,99,0.00,CLR,SCT,0.73,WeatherDisplay:10.37,2013-01-20 03:25:00,
2013-01-19 22:30:00,66.0,65.7,30.09,West,280,0.0,0.0,99,0.00,CLR,SCT,0.73,WeatherDisplay:10.37,2013-01-20 03:30:00,
2013-01-19 22:35:00,66.0,65.7,30.09,WSW,248,0.0,0.0,99,0.00,CLR,SCT,0.73,WeatherDisplay:10.37,2013-01-20 03:35:00,
2013-01-19 22:40:00,65.8,65.5,30.09,WNW,292,0.0,0.0,99,0.00,CLR,SCT,0.73,WeatherDisplay:10.37,2013-01-20 03:40:00,
2013-01-19 22:46:00,65.7,65.4,30.09,WNW,292,0.0,0.0,99,0.00,CLR,SCT,0.73,WeatherDisplay:10.37,2013-01-20 03:46:00,
2013-01-19 22:52:00,65.5,65.2,30.09,WNW,292,0.0,0.0,99,0.00,CLR,SCT,0.73,WeatherDisplay:10.37,2013-01-20 03:52:00,
2013-01-19 22:57:00,65.5,65.2,30.09,SW,225,0.0,0.0,99,0.00,CLR,SCT,0.73,WeatherDisplay:10.37,2013-01-20 03:57:00,
2013-01-19 23:02:00,65.5,65.2,30.08,West,270,0.0,0.0,99,0.00,CLR,SCT,0.73,WeatherDisplay:10.37,2013-01-20 04:02:00,
2013-01-19 23:08:00,65.5,65.2,30.08,West,270,0.0,0.0,99,0.00,CLR,SCT,0.73,WeatherDisplay:10.37,2013-01-20 04:08:00,
2013-01-19 23:13:00,65.5,65.2,30.08,WNW,292,0.0,0.0,99,0.00,CLR,SCT,0.73,WeatherDisplay:10.37,2013-01-20 04:13:00,
2013-01-19 23:19:00,65.5,65.2,30.08,WNW,292,0.0,0.0,99,0.00,CLR,SCT,0.73,WeatherDisplay:10.37,2013-01-20 04:19:00,
2013-01-19 23:25:00,65.4,65.1,30.08,West,264,0.0,0.0,99,0.00,CLR,SCT,0.73,WeatherDisplay:10.37,2013-01-20 04:25:00,
2013-01-19 23:30:00,65.1,64.8,30.08,West,263,0.0,0.0,99,0.00,CLR,SCT,0.73,WeatherDisplay:10.37,2013-01-20 04:30:00,
2013-01-19 23:35:00,65.1,64.8,30.08,West,270,0.0,0.0,99,0.00,CLR,SCT,0.73,WeatherDisplay:10.37,2013-01-20 04:35:00,
2013-01-19 23:40:00,65.3,65.0,30.08,West,270,0.0,0.0,99,0.00,CLR,SCT,0.73,WeatherDisplay:10.37,2013-01-20 04:40:00,
2013-01-19 23:47:00,65.3,65.0,30.08,SSE,158,0.0,0.0,99,0.00,CLR,SCT,0.73,WeatherDisplay:10.37,2013-01-20 04:47:00,
2013-01-19 23:53:00,65.3,65.0,30.08,West,270,0.0,0.0,99,0.00,CLR,SCT,0.73,WeatherDisplay:10.37,2013-01-20 04:53:00,
2013-01-19 23:59:00,65.3,65.0,30.08,West,270,0.0,0.0,99,0.00,CLR,SCT,0.73,WeatherDisplay:10.37,2013-01-20 04:59:00,